Starlink 34352

operational
NORAD ID: 64257 Int'l Des: 2025-120 Owner: SPXS Country: US Constellation: starlink
LEOCIRCULAR

About Starlink 34352

Description loading...

Live Position

Loading 3D Globe...

Upcoming Passes

Altitude History

Altitude vs Time

uPlot chart will show altitude changes over time

Two-Line Element Set

1 64257U 25120B 25307.81561756 .00030110 00000-0 10234-2 0 9997
2 64257 53.1599 341.4106 0001435 92.0687 268.0478 15.30238524 24590
Epoch: Nov 3, 2025 • Age: 8 hours

Current Status

Altitude 475.9 km
Velocity 7.63 km/s
Sub-Earth Point 0.64°N, 114.5°W
Launch Date Jun 4, 2025
Age 0.4 years
Type internet

Technical Details

Classification Payload
Mass 575.00 kg
Dry Mass 530.00 kg
Total Mass 575.00 kg
Length 0.30 m
Diameter 4.10 m
Span 29.00 m
Shape Box + pan
Manufacturer SPXS
Bus Type Starlink V2MO
Phase Status In Orbit
Owner/State SPXS/US

Large Constellations

Loading constellations...